193  
ASUS44 KOUN 310710  
RWROK  
 
WEATHER ROUNDUP FOR OKLAHOMA  
NATIONAL WEATHER SERVICE NORMAN OK  
200 AM CDT SUN MAY 31 2020  
 
NOTE: "FAIR" INDICATES FEW OR NO CLOUDS BELOW 12,000 FEET WITH NO  
SIGNIFICANT WEATHER AND/OR S TO VISIBILITY
.  
 
OKZ001>007-009>012-014-015-017-310800-  
NORTHWEST OKLAHOMA AND THE PANHANDLE  
 
CITY SKY/WX TMP DP RH WIND PRES REMARKS
 
GAGE CLEAR 67 55 65 S13 30.15R  
GUYMON MOCLDY 72 53 51 S18G24 30.12R  
ENID/WOODRING CLEAR 61 54 77 CALM 30.15F  

 
 
OKZ016-021>023-033>039-044-045-310800-  
SOUTHWEST OKLAHOMA  
 
CITY SKY/WX TMP DP RH WIND PRES REMARKS
 
LAWTON/REGL CLEAR 62 57 83 CALM 30.15S  
LAWTON/FT SILL CLEAR 62 59 88 CALM 30.14F  
FREDERICK CLEAR 67 57 70 E8 30.12S  
CLINTON CLEAR 66 54 65 SE9 30.17F  
HOBART CLEAR 65 56 72 E6 30.16F  
ALTUS AFB CLEAR 64 56 75 SE8 30.15S  

 
 
OKZ018>020-024>031-310800-  
CENTRAL OKLAHOMA  
 
CITY SKY/WX TMP DP RH WIND PRES REMARKS
 
OKLAHOMA CITY CLEAR 61 50 67 S3 30.16F  
OKC/WILEY POST CLEAR 69 51 52 SE7 30.16F  
OKC/TINKER AFB CLEAR 63 52 66 E8 30.16F  
STILLWATER PTCLDY 63 57 81 E5 30.16F  
GUTHRIE CLEAR 66 52 60 SE6 30.16F  

 
 
OKZ008-013-054>072-310800-  
NORTHEAST OKLAHOMA  
 
CITY SKY/WX TMP DP RH WIND PRES REMARKS
 
TULSA CLEAR 68 60 75 CALM 30.15F  
TULSA/JONES CLEAR 65 60 84 CALM 30.16S  
PONCA CITY PTCLDY 68 57 68 SE9 30.16F  
BARTLESVILLE CLEAR 60 58 92 CALM 30.18F  
MUSKOGEE CLEAR 61 60 97 S5 30.17S  

 
 
OKZ032-040>043-046>053-073>077-310800-  
SOUTH CENTRAL/SOUTHEAST OKLAHOMA  
 
CITY SKY/WX TMP DP RH WIND PRES REMARKS
 
ARDMORE/DWNTWN CLEAR 63 59 88 N3 30.15S  
MCALESTER CLEAR 60 57 89 CALM 30.17R  

 
 
 
 
CLICK HERE TO GO TO PREVIOUS BULLETINS.

The Nexlab OK Page Main Text Page